EDT,Max TemperatureF,Mean TemperatureF,Min TemperatureF,Max Dew PointF,MeanDew PointF,Min DewpointF,Max Humidity, Mean Humidity, Min Humidity, Max Sea Level PressureIn, Mean Sea Level PressureIn, Min Sea Level PressureIn, Max VisibilityMiles, Mean VisibilityMiles, Min VisibilityMiles, Max Wind SpeedMPH, Mean Wind SpeedMPH, Max Gust SpeedMPH,PrecipitationIn, CloudCover, Events, WindDirDegrees
2013-3-1,29,26,23,25,20,18,86,76,58,30.01,29.92,29.81,15,15,12,16,12,23,0.00,8,Snow,333
2013-3-2,27,22,17,19,16,13,86,76,62,30.01,29.98,29.94,15,14,7,18,9,18,0.00,8,Snow,338
2013-3-3,25,22,19,16,13,12,86,73,54,29.99,29.94,29.91,15,13,8,15,10,22,0.00,7,Snow,297
2013-3-4,28,22,16,19,16,12,86,76,53,30.11,30.05,29.99,20,15,15,18,10,24,0.00,6,,286
2013-3-5,28,20,13,25,18,14,93,81,62,30.13,30.07,29.95,15,15,10,26,8,33,0.00,3,Snow,32
2013-3-6,35,31,27,32,29,25,93,87,77,30.19,30.08,29.94,15,12,8,25,18,31,0.00,7,Rain-Snow,40
2013-3-7,36,33,30,34,32,28,100,93,82,30.32,30.25,30.18,15,8,0,12,5,,0.16,8,Rain-Snow,352
2013-3-8,39,34,28,30,28,25,100,79,47,30.44,30.39,30.33,15,14,1,10,7,,0.00,6,Snow,334
2013-3-9,41,32,23,32,27,23,100,84,52,30.43,30.35,30.19,15,15,15,13,5,,0.00,3,,27
2013-3-10,53,42,31,37,33,28,100,69,40,30.19,30.04,29.94,15,15,15,18,8,24,0.00,6,Rain,152
2013-3-11,46,43,40,43,36,30,93,72,44,29.94,29.80,29.61,15,12,7,17,9,28,0.16,8,Rain,179
2013-3-12,37,34,32,37,32,28,93,87,80,29.90,29.81,29.67,15,12,5,21,17,28,0.00,7,Rain-Snow,227
2013-3-13,32,28,23,28,23,15,100,82,57,30.04,29.90,29.83,15,8,1,22,13,31,0.04,7,Snow,252
2013-3-14,30,22,15,19,13,9,86,64,33,30.15,30.11,30.06,15,15,12,21,12,28,0.00,3,Snow,283
2013-3-15,38,32,25,30,24,18,87,76,51,30.07,29.88,29.79,15,12,6,20,12,29,0.00,7,Snow,256
2013-3-16,27,25,23,21,19,17,86,79,54,30.01,29.90,29.86,15,10,2,22,11,29,0.02,7,Snow,44
2013-3-17,29,22,14,19,15,11,86,70,44,30.33,30.19,30.01,15,14,4,13,6,,0.00,4,Snow,346
2013-3-18,32,26,19,32,20,10,100,77,55,30.32,30.00,29.66,15,10,1,26,13,32,0.12,6,Rain-Snow,76
2013-3-19,34,28,23,34,24,18,100,82,65,29.84,29.71,29.61,15,6,1,26,18,33,0.02,8,Rain-Snow,234
2013-3-20,29,25,19,19,17,14,86,72,53,29.87,29.85,29.83,15,12,1,22,15,26,0.00,5,Snow,259
2013-3-21,30,22,15,25,18,12,86,80,69,29.85,29.79,29.74,15,10,1,18,11,26,0.02,5,Snow,258
2013-3-22,31,28,24,25,22,19,86,80,61,29.98,29.86,29.80,15,12,2,17,13,28,0.04,7,Snow,272
2013-3-23,39,31,23,25,23,21,93,73,49,30.06,30.01,29.97,15,15,15,15,10,21,0.00,3,,288
2013-3-24,34,28,22,25,22,19,93,73,47,30.07,29.92,29.73,15,15,15,20,9,26,0.00,5,,18
2013-3-25,37,34,31,30,27,23,87,74,59,29.79,29.68,29.64,15,15,15,24,19,31,0.00,7,,46
2013-3-26,45,38,32,30,27,23,81,65,42,30.00,29.89,29.79,15,15,15,16,9,21,0.00,5,,297
2013-3-27,42,36,29,34,29,23,100,80,65,30.11,30.04,29.98,15,13,4,21,12,26,0.01,6,Rain-Snow,274
2013-3-28,42,36,31,34,31,28,100,82,51,30.24,30.16,30.09,15,15,8,10,7,,0.02,7,Snow,283
2013-3-29,50,42,33,32,28,23,87,64,35,30.23,30.21,30.17,15,14,10,13,6,20,0.00,4,,275
2013-3-30,50,38,26,30,27,23,100,63,33,30.23,30.16,30.03,15,15,15,16,7,20,0.00,2,,248
2013-3-31,54,44,35,41,31,23,93,63,36,30.01,29.76,29.62,15,14,9,18,11,28,0.03,7,Rain,194